YO6IKB-10 Weather Reports


Display with metric or nautical units.
time (UTC)temp
F
wind
direction
speed
MPH
gust
MPH
rain 1hr
in
rain 24hr
in
rain mn
in
humidity
%
barometer
mb
20260508113201 78 292 2.0 8.0 0.00 0.02 0.00 48 1011.4
20260508112701 78 292 3.0 9.0 0.00 0.02 0.00 48 1011.4
20260508112201 78 292 2.0 8.0 0.00 0.02 0.00 48 1011.4
20260508111700 78 292 5.0 6.0 0.00 0.02 0.00 48 1011.5
20260508111200 78 292 1.0 10.0 0.00 0.02 0.00 48 1011.5
20260508110700 78 292 0.0 3.0 0.00 0.02 0.00 48 1011.5
20260508110200 78 292 0.0 5.0 0.00 0.02 0.00 48 1011.5
20260508105659 78 292 4.0 10.0 0.00 0.02 0.00 48 1011.5
20260508105159 78 292 3.0 6.0 0.00 0.02 0.00 49 1011.3
20260508104659 77 292 1.0 6.0 0.00 0.02 0.00 49 1011.4
20260508104158 77 292 2.0 11.0 0.00 0.02 0.00 48 1011.4
20260508103658 77 292 5.0 6.0 0.00 0.02 0.00 49 1011.5
20260508103158 77 247 1.0 8.0 0.00 0.02 0.00 49 1011.4
20260508102657 77 292 4.0 9.0 0.00 0.02 0.00 49 1011.5
20260508102157 77 292 3.0 8.0 0.00 0.02 0.00 49 1011.5
20260508101657 77 292 8.0 8.0 0.00 0.02 0.00 50 1011.5
20260508101157 77 292 6.0 14.0 0.00 0.02 0.00 50 1011.6
20260508100656 76 292 4.0 12.0 0.00 0.02 0.00 51 1011.5
20260508100156 76 292 2.0 6.0 0.00 0.02 0.00 52 1011.6
20260508095656 75 292 1.0 9.0 0.00 0.02 0.00 53 1011.6
20260508095155 75 0 2.0 8.0 0.00 0.02 0.00 53 1011.7
20260508094655 75 292 0.0 7.0 0.00 0.02 0.00 53 1011.8
20260508094155 74 292 6.0 8.0 0.00 0.02 0.00 53 1011.9
20260508093655 74 292 7.0 10.0 0.00 0.02 0.00 53 1012.1
20260508093154 75 292 4.0 8.0 0.00 0.02 0.00 53 1012.1
20260508092654 75 292 3.0 8.0 0.00 0.02 0.00 53 1012.1
20260508092154 74 292 4.0 7.0 0.00 0.02 0.00 53 1012.0
20260508091653 74 337 2.0 8.0 0.00 0.02 0.00 53 1012.0
20260508091153 75 22 3.0 10.0 0.00 0.02 0.00 51 1012.0
20260508090653 75 292 7.0 10.0 0.00 0.02 0.00 53 1012.0
20260508090153 74 292 6.0 8.0 0.00 0.02 0.00 55 1012.0
20260508085652 73 22 0.0 6.0 0.00 0.02 0.00 56 1012.0
20260508085152 71 292 3.0 6.0 0.00 0.02 0.00 57 1012.1
20260508084652 71 22 4.0 7.0 0.00 0.02 0.00 57 1012.0
20260508084151 72 22 4.0 6.0 0.00 0.02 0.00 54 1012.0
20260508083651 73 22 5.0 7.0 0.00 0.02 0.00 53 1012.0
20260508083151 74 315 1.0 7.0 0.00 0.02 0.00 51 1012.1
20260508082650 77 22 3.0 8.0 0.00 0.02 0.00 51 1012.2
20260508082150 78 225 1.0 9.0 0.00 0.02 0.00 52 1012.1
20260508081650 78 292 2.0 5.0 0.00 0.02 0.00 51 1012.1
20260508081150 78 292 1.0 8.0 0.00 0.02 0.00 53 1012.0
20260508080649 77 337 2.0 6.0 0.00 0.02 0.00 54 1012.1
20260508080149 77 45 2.0 4.0 0.00 0.02 0.00 53 1012.0
20260508075649 76 292 0.0 4.0 0.00 0.02 0.00 55 1012.2
20260508075148 76 292 0.0 6.0 0.00 0.02 0.00 54 1012.2
20260508074648 76 292 3.0 9.0 0.00 0.02 0.00 57 1012.1
20260508074148 74 247 0.0 6.0 0.00 0.02 0.00 57 1012.1
20260508073648 73 315 1.0 5.0 0.00 0.02 0.00 58 1012.2
20260508073147 72 22 0.0 4.0 0.00 0.02 0.00 58 1012.2
20260508072647 72 292 1.0 5.0 0.00 0.02 0.00 60 1012.1
20260508072147 71 292 1.0 4.0 0.00 0.02 0.00 62 1012.2
20260508071646 70 22 2.0 3.0 0.00 0.02 0.00 62 1012.2
20260508071146 70 45 0.0 3.0 0.00 0.02 0.00 63 1012.2
20260508070646 70 22 2.0 5.0 0.00 0.02 0.00 62 1012.3
20260508070145 70 45 1.0 4.0 0.00 0.02 0.00 63 1012.3
20260508065645 69 292 1.0 4.0 0.00 0.02 0.00 66 1012.3
20260508065145 68 22 2.0 3.0 0.00 0.02 0.00 67 1012.3
20260508064645 67 22 2.0 4.0 0.00 0.02 0.00 67 1012.2
20260508064144 67 0 2.0 3.0 0.00 0.02 0.00 67 1012.2
20260508063644 67 337 0.0 3.0 0.00 0.02 0.00 66 1012.3
20260508063144 67 22 1.0 3.0 0.00 0.02 0.00 66 1012.2
20260508062643 68 22 2.0 2.0 0.00 0.02 0.00 65 1012.3
20260508062143 68 337 2.0 3.0 0.00 0.02 0.00 65 1012.3
20260508061643 69 45 1.0 2.0 0.00 0.02 0.00 65 1012.3
20260508061143 69 0 1.0 2.0 0.00 0.02 0.00 65 1012.3
20260508060642 69 0 0.0 2.0 0.00 0.02 0.00 65 1012.3
20260508060142 70 337 1.0 1.0 0.00 0.02 0.00 65 1012.2
20260508055642 70 337 0.0 0.0 0.00 0.02 0.00 66 1012.3
20260508055141 69 337 0.0 2.0 0.00 0.02 0.00 67 1012.3
20260508054641 68 0 2.0 2.0 0.00 0.02 0.00 68 1012.3
20260508054141 67 0 2.0 2.0 0.00 0.02 0.00 69 1012.3
20260508053640 66 0 0.0 2.0 0.00 0.02 0.00 68 1012.3
20260508053140 67 22 2.0 3.0 0.00 0.02 0.00 68 1012.2
20260508052640 68 0 2.0 3.0 0.00 0.02 0.00 69 1012.2
20260508052140 67 0 0.0 1.0 0.00 0.02 0.00 71 1012.3
20260508051639 65 0 0.0 2.0 0.00 0.02 0.00 72 1012.2
20260508051139 65 292 1.0 2.0 0.00 0.02 0.00 72 1012.2
20260508050639 65 292 1.0 2.0 0.00 0.02 0.00 73 1012.2
20260508050138 65 202 1.0 2.0 0.00 0.02 0.00 74 1012.2
20260508045638 65 202 2.0 2.0 0.00 0.02 0.00 75 1012.1
20260508045138 64 202 0.0 0.0 0.00 0.02 0.00 78 1012.1
20260508044638 62 202 0.0 1.0 0.00 0.02 0.00 78 1012.1
20260508044137 62 202 1.0 1.0 0.00 0.02 0.00 80 1012.1
20260508043637 61 202 0.0 1.0 0.00 0.02 0.00 81 1012.1
20260508043137 60 202 0.0 0.0 0.00 0.02 0.00 80 1011.9
20260508042636 59 202 0.0 0.0 0.00 0.02 0.00 81 1011.9
20260508042136 59 202 0.0 0.0 0.00 0.02 0.00 81 1011.9
20260508041636 59 202 0.0 1.0 0.00 0.02 0.00 81 1012.0
20260508041136 59 202 0.0 0.0 0.00 0.02 0.00 81 1011.9
20260508040635 58 202 0.0 0.0 0.00 0.02 0.00 80 1011.9
20260508040135 58 202 0.0 1.0 0.00 0.02 0.00 80 1011.9
20260508035635 58 202 0.0 3.0 0.00 0.02 0.00 80 1011.9
20260508035134 57 202 0.0 2.0 0.00 0.02 0.00 81 1011.9
20260508034634 57 202 2.0 2.0 0.00 0.02 0.00 80 1011.8
20260508034134 57 202 0.0 2.0 0.00 0.02 0.00 80 1011.8
20260508033633 57 202 0.0 3.0 0.00 0.02 0.00 80 1011.7
20260508033133 57 202 2.0 3.0 0.00 0.02 0.00 80 1011.7
20260508032633 57 202 2.0 2.0 0.00 0.02 0.00 81 1011.6
20260508032132 57 202 1.0 3.0 0.00 0.02 0.00 81 1011.6
20260508031632 57 202 0.0 2.0 0.00 0.02 0.00 81 1011.7
20260508031132 57 202 0.0 1.0 0.00 0.02 0.00 81 1011.7
20260508030632 57 202 0.0 1.0 0.00 0.02 0.00 81 1011.7
20260508030131 57 202 0.0 2.0 0.00 0.02 0.00 81 1011.6
20260508025631 57 202 0.0 2.0 0.00 0.02 0.00 81 1011.6
20260508025131 57 202 0.0 4.0 0.00 0.02 0.00 81 1011.6
20260508024630 57 247 0.0 0.0 0.00 0.02 0.00 82 1011.6
20260508024130 57 247 0.0 0.0 0.00 0.02 0.00 81 1011.5
20260508023630 57 247 0.0 0.0 0.00 0.02 0.00 82 1011.5
20260508023130 57 247 0.0 0.0 0.00 0.02 0.00 82 1011.4
20260508022629 57 247 0.0 2.0 0.00 0.02 0.00 82 1011.5
20260508022129 57 292 0.0 2.0 0.00 0.02 0.00 82 1011.5
20260508021629 57 292 0.0 0.0 0.00 0.02 0.00 81 1011.6
20260508021128 57 292 0.0 0.0 0.00 0.02 0.00 81 1011.5
20260508020628 57 292 0.0 0.0 0.00 0.02 0.00 81 1011.6
20260508020128 57 292 0.0 0.0 0.02 0.02 0.00 81 1011.7
20260508015628 57 292 0.0 0.0 0.02 0.02 0.00 81 1011.8
20260508015127 57 292 0.0 0.0 0.02 0.02 0.00 81 1011.7
20260508014627 57 292 0.0 2.0 0.02 0.02 0.00 81 1011.8
20260508014127 57 292 0.0 0.0 0.02 0.02 0.00 81 1011.7
20260508013626 57 292 0.0 0.0 0.02 0.02 0.00 81 1011.8
20260508013126 57 292 0.0 0.0 0.02 0.02 0.00 80 1011.7
20260508012626 57 292 0.0 0.0 0.02 0.02 0.00 79 1011.7
20260508012125 57 292 0.0 1.0 0.02 0.02 0.00 79 1011.7
20260508011625 58 292 0.0 0.0 0.02 0.02 0.00 77 1011.7
20260508011125 58 292 0.0 0.0 0.02 0.02 0.00 77 1011.7
20260508010625 58 292 0.0 0.0 0.02 0.02 0.00 77 1011.8
20260508010124 58 292 0.0 0.0 0.00 0.00 0.00 77 1011.8
20260508005624 58 292 0.0 0.0 0.00 0.00 0.00 77 1011.9
20260508005124 58 292 0.0 0.0 0.00 0.00 0.00 77 1012.0
20260508004623 58 292 0.0 1.0 0.00 0.00 0.00 77 1011.8
20260508004123 58 292 0.0 0.0 0.00 0.00 0.00 77 1011.9
20260508003623 58 292 0.0 0.0 0.00 0.00 0.00 76 1011.8
20260508003123 58 292 0.0 2.0 0.00 0.00 0.00 75 1011.9
20260508002622 58 292 0.0 1.0 0.00 0.00 0.00 75 1011.9
20260508002122 59 292 0.0 2.0 0.00 0.00 0.00 75 1011.9
20260508001622 59 315 0.0 4.0 0.00 0.00 0.00 73 1011.8
20260508001121 59 292 0.0 1.0 0.00 0.00 0.00 72 1011.8
20260508000621 59 292 0.0 0.0 0.00 0.00 0.00 72 1011.8
20260508000121 60 292 0.0 4.0 0.00 0.00 0.00 71 1011.7
20260507235621 60 292 0.0 3.0 0.00 0.00 0.00 70 1011.9
20260507235120 60 292 2.0 3.0 0.00 0.00 0.00 69 1011.7
20260507234620 61 292 1.0 3.0 0.00 0.00 0.00 68 1011.8
20260507234120 61 292 1.0 3.0 0.00 0.00 0.00 67 1011.8
20260507233619 61 292 2.0 5.0 0.00 0.00 0.00 66 1011.8
20260507233119 62 292 2.0 4.0 0.00 0.00 0.00 65 1011.8
20260507232619 62 292 2.0 8.0 0.00 0.00 0.00 64 1011.8
20260507232118 62 247 7.0 7.0 0.00 0.00 0.00 63 1011.8
20260507231618 63 315 2.0 9.0 0.00 0.00 0.00 62 1011.9
20260507231118 63 292 4.0 6.0 0.00 0.00 0.00 61 1011.8
20260507230618 63 292 4.0 5.0 0.00 0.00 0.00 60 1011.7
20260507230117 63 292 4.0 6.0 0.00 0.00 0.00 60 1011.7
20260507225617 63 292 2.0 4.0 0.00 0.00 0.00 60 1011.6
20260507225117 64 292 0.0 4.0 0.00 0.00 0.00 60 1011.6
20260507224616 64 247 3.0 5.0 0.00 0.00 0.00 60 1011.5
20260507224116 64 292 3.0 6.0 0.00 0.00 0.00 60 1011.6
20260507223616 64 292 2.0 5.0 0.00 0.00 0.00 60 1011.6
20260507223116 64 247 4.0 8.0 0.00 0.00 0.00 59 1011.6
20260507222615 64 247 5.0 6.0 0.00 0.00 0.00 60 1011.7
20260507222115 64 202 1.0 9.0 0.00 0.00 0.00 60 1011.7
20260507221615 64 247 6.0 18.0 0.00 0.00 0.00 60 1011.7
20260507221114 64 225 13.0 17.0 0.00 0.00 0.00 60 1011.7
20260507220614 64 202 5.0 11.0 0.00 0.00 0.00 60 1011.7
20260507220114 65 202 6.0 10.0 0.00 0.00 0.00 60 1011.6
20260507215613 65 225 6.0 11.0 0.00 0.00 0.00 61 1011.6
20260507215113 65 225 9.0 13.0 0.00 0.00 0.00 61 1011.6
20260507214613 65 247 8.0 9.0 0.00 0.00 0.00 60 1011.6
20260507214113 65 202 7.0 10.0 0.00 0.00 0.00 60 1011.5
20260507213612 65 202 0.0 12.0 0.00 0.00 0.00 60 1011.5
20260507213112 65 225 7.0 14.0 0.00 0.00 0.00 59 1011.5
20260507212612 65 202 5.0 8.0 0.00 0.00 0.00 59 1011.6
20260507212111 65 202 0.0 4.0 0.00 0.00 0.00 59 1011.5
20260507211611 65 225 0.0 6.0 0.00 0.00 0.00 59 1011.6
20260507211111 65 202 4.0 5.0 0.00 0.00 0.00 59 1011.6
20260507210611 65 202 2.0 4.0 0.00 0.00 0.00 58 1011.4
20260507210110 65 225 0.0 4.0 0.00 0.00 0.00 59 1011.4
20260507205610 65 225 2.0 4.0 0.00 0.00 0.00 58 1011.3
20260507205110 65 225 0.0 6.0 0.00 0.00 0.00 58 1011.3
20260507204609 65 225 4.0 6.0 0.00 0.00 0.00 58 1011.3
20260507204109 66 225 2.0 6.0 0.00 0.00 0.00 57 1011.3
20260507203609 66 225 0.0 4.0 0.00 0.00 0.00 57 1011.2
20260507203108 66 225 2.0 2.0 0.00 0.00 0.00 56 1011.2
20260507202608 66 225 0.0 2.0 0.00 0.00 0.00 56 1011.2
20260507202108 66 225 2.0 2.0 0.00 0.00 0.00 56 1011.2
20260507201608 66 225 0.0 0.0 0.00 0.00 0.00 56 1011.3
20260507201107 66 225 0.0 1.0 0.00 0.00 0.00 56 1011.2
20260507200607 66 225 1.0 1.0 0.00 0.00 0.00 56 1011.2
20260507200107 66 225 0.0 0.0 0.00 0.00 0.00 56 1011.1
20260507195606 66 225 0.0 0.0 0.00 0.00 0.00 55 1011.1
20260507195106 66 225 0.0 1.0 0.00 0.00 0.00 55 1011.1
20260507194606 66 225 0.0 0.0 0.00 0.00 0.00 55 1011.2
20260507194106 66 225 0.0 1.0 0.00 0.00 0.00 56 1011.2
20260507193605 66 225 1.0 1.0 0.00 0.00 0.00 56 1011.2
20260507193105 66 225 0.0 3.0 0.00 0.00 0.00 56 1011.2
20260507192605 66 225 0.0 1.0 0.00 0.00 0.00 56 1011.2
20260507192104 67 225 0.0 1.0 0.00 0.00 0.00 56 1011.2
20260507191604 67 225 0.0 4.0 0.00 0.00 0.00 57 1011.0
20260507191104 67 225 0.0 1.0 0.00 0.00 0.00 56 1010.9
20260507190608 67 225 1.0 4.0 0.00 0.00 0.00 57 1011.1
20260507185603 67 225 0.0 0.0 0.00 0.00 0.00 56 1010.9
20260507185103 67 225 0.0 0.0 0.00 0.00 0.00 56 1010.9
20260507184602 68 225 0.0 2.0 0.00 0.00 0.00 55 1010.8
20260507184102 68 225 0.0 1.0 0.00 0.00 0.00 54 1010.8
20260507183602 68 225 0.0 0.0 0.00 0.00 0.00 54 1010.7
20260507183101 68 225 0.0 1.0 0.00 0.00 0.00 53 1010.6
20260507182601 68 225 0.0 4.0 0.00 0.00 0.00 52 1010.5
20260507182101 69 225 1.0 2.0 0.00 0.00 0.00 51 1010.3
20260507181601 69 225 0.0 3.0 0.00 0.00 0.00 51 1010.2
20260507181100 69 225 0.0 8.0 0.00 0.00 0.00 51 1010.1
20260507180600 69 225 7.0 7.0 0.00 0.00 0.00 51 1010.1
20260507180100 69 202 0.0 7.0 0.00 0.00 0.00 51 1010.0
20260507175559 69 180 2.0 7.0 0.00 0.00 0.00 51 1009.9
20260507175059 69 247 3.0 8.0 0.00 0.00 0.00 51 1009.9
20260507174559 69 247 6.0 11.0 0.00 0.00 0.00 50 1009.6
20260507174059 69 247 2.0 9.0 0.00 0.00 0.00 50 1009.6
20260507173558 70 292 4.0 9.0 0.00 0.00 0.00 50 1009.5
20260507173058 70 202 3.0 8.0 0.00 0.00 0.00 50 1009.6
20260507172558 70 225 3.0 10.0 0.00 0.00 0.00 49 1009.5
20260507172057 70 225 8.0 10.0 0.00 0.00 0.00 49 1009.6
20260507171557 71 202 5.0 8.0 0.00 0.00 0.00 49 1009.6
20260507171057 71 225 6.0 9.0 0.00 0.00 0.00 48 1009.5
20260507170557 71 247 9.0 9.0 0.00 0.00 0.00 48 1009.5
20260507170056 71 247 4.0 12.0 0.00 0.00 0.00 48 1009.5
20260507165556 72 225 10.0 14.0 0.00 0.00 0.00 47 1009.5
20260507165056 72 247 7.0 17.0 0.00 0.00 0.00 47 1009.5
20260507164555 73 292 6.0 15.0 0.00 0.00 0.00 47 1009.5
20260507164055 73 247 14.0 20.0 0.00 0.00 0.00 46 1009.5
20260507163555 74 202 13.0 19.0 0.00 0.00 0.00 46 1009.6
20260507163054 74 292 1.0 16.0 0.00 0.00 0.00 45 1009.6
20260507162554 74 225 10.0 20.0 0.00 0.00 0.00 45 1009.6
20260507162054 75 202 7.0 14.0 0.00 0.00 0.00 45 1009.6
20260507161554 74 247 8.0 15.0 0.00 0.00 0.00 44 1009.5
20260507161053 74 225 11.0 13.0 0.00 0.00 0.00 44 1009.6
20260507160553 74 225 7.0 16.0 0.00 0.00 0.00 44 1009.7
20260507160053 74 247 3.0 17.0 0.00 0.00 0.00 44 1009.6
20260507155552 75 225 14.0 18.0 0.00 0.00 0.00 44 1009.6
20260507155052 75 247 8.0 19.0 0.00 0.00 0.00 44 1009.6
20260507154552 75 180 13.0 19.0 0.00 0.00 0.00 43 1009.6
20260507154051 76 225 10.0 19.0 0.00 0.00 0.00 43 1009.6
20260507153551 76 225 9.0 19.0 0.00 0.00 0.00 42 1009.7
20260507153051 76 202 8.0 17.0 0.00 0.00 0.00 42 1009.7
20260507152551 77 247 12.0 19.0 0.00 0.00 0.00 41 1009.6
20260507152050 77 180 3.0 15.0 0.00 0.00 0.00 41 1009.6
20260507151550 78 225 9.0 20.0 0.00 0.00 0.00 41 1009.6
20260507151050 79 202 5.0 7.0 0.00 0.00 0.00 41 1009.6
20260507150549 80 45 0.0 2.0 0.00 0.00 0.00 41 1009.6
20260507150049 80 225 0.0 7.0 0.00 0.00 0.00 41 1009.6
20260507145549 80 180 3.0 10.0 0.00 0.00 0.00 41 1009.6
20260507145049 80 112 0.0 8.0 0.00 0.00 0.00 40 1009.6
20260507144548 80 157 3.0 13.0 0.00 0.00 0.00 39 1009.6
20260507144048 80 67 3.0 11.0 0.00 0.00 0.00 39 1009.6
20260507143548 79 157 1.0 7.0 0.00 0.00 0.00 39 1009.6
20260507143047 80 157 3.0 14.0 0.00 0.00 0.00 38 1009.6
20260507142547 80 225 7.0 19.0 0.00 0.00 0.00 38 1009.6
20260507142047 80 225 4.0 14.0 0.00 0.00 0.00 38 1009.5
20260507141547 79 202 2.0 17.0 0.00 0.00 0.00 38 1009.6
20260507141046 80 225 6.0 23.0 0.00 0.00 0.00 37 1009.6
20260507140546 80 247 7.0 21.0 0.00 0.00 0.00 37 1009.6
20260507140046 80 225 8.0 24.0 0.00 0.00 0.00 37 1009.6
20260507135545 80 202 15.0 24.0 0.00 0.00 0.00 37 1009.6
20260507135045 79 202 7.0 8.0 0.00 0.00 0.00 40 1009.6
20260507134545 79 157 0.0 6.0 0.00 0.00 0.00 40 1009.6
20260507134044 79 180 2.0 12.0 0.00 0.00 0.00 40 1009.6
20260507133544 79 157 4.0 7.0 0.00 0.00 0.00 40 1009.6
20260507133044 79 157 3.0 12.0 0.00 0.00 0.00 39 1009.5
20260507132543 80 67 3.0 11.0 0.00 0.00 0.00 39 1009.5
20260507132043 81 45 4.0 15.0 0.00 0.00 0.00 38 1009.5
20260507131543 81 157 3.0 14.0 0.00 0.00 0.00 37 1009.5
20260507131043 82 90 1.0 9.0 0.00 0.00 0.00 36 1009.5
20260507130542 82 157 3.0 6.0 0.00 0.00 0.00 36 1009.5
20260507130042 82 135 4.0 7.0 0.00 0.00 0.00 35 1009.5
20260507125542 82 157 2.0 13.0 0.00 0.00 0.00 35 1009.5
20260507125041 82 157 4.0 10.0 0.00 0.00 0.00 35 1009.5
20260507124541 82 135 0.0 17.0 0.00 0.00 0.00 35 1009.5
20260507124041 82 225 8.0 20.0 0.00 0.00 0.00 35 1009.4
20260507123541 83 202 3.0 14.0 0.00 0.00 0.00 35 1009.5
20260507123040 83 225 10.0 15.0 0.00 0.00 0.00 35 1009.5
20260507122540 83 202 0.0 17.0 0.00 0.00 0.00 34 1009.4
20260507122040 84 225 4.0 20.0 0.00 0.00 0.00 34 1009.5
20260507121539 84 202 10.0 23.0 0.00 0.00 0.00 33 1009.4
20260507121039 85 292 7.0 12.0 0.00 0.00 0.00 33 1009.5
20260507120539 85 247 0.0 11.0 0.00 0.00 0.00 33 1009.5
20260507120039 84 157 3.0 10.0 0.00 0.00 0.00 33 1009.4
20260507115538 83 180 0.0 9.0 0.00 0.00 0.00 33 1009.4
20260507115038 83 90 0.0 8.0 0.00 0.00 0.00 32 1009.4
20260507114538 84 45 0.0 10.0 0.00 0.00 0.00 30 1009.4
20260507114037 85 67 3.0 8.0 0.00 0.00 0.00 32 1009.4